WetterOnline ( http://www.wetteronline.de )

Wetter aktuell Taunus (in 800m)

Aktuelles Wetter: Kleiner Feldberg (802m)

6-stündlich | Neueste Meldungen
Ortszeit Temperatur Wetter
Di, 21.08. 14:00 19.9° C bedeckt
Di, 21.08. 8:00 16.4° C bedeckt
Di, 21.08. 2:00 15.7° C bedeckt
Mo, 20.08. 20:00 17.6° C bedeckt
Mo, 20.08. 14:00 20.8° C bewölkt
Mo, 20.08. 8:00 15.9° C leicht bewölkt
Mo, 20.08. 2:00 16.1° C leicht bewölkt
So, 19.08. 20:00 21.5° C leicht bewölkt
Ortszeit Temperatur Wetter
Di, 21.08. 15:00 22.8° C bewölkt
Di, 21.08. 14:50 22.8° C bewölkt
Di, 21.08. 14:40 21.7° C bewölkt
Di, 21.08. 14:30 21.0° C bedeckt
Di, 21.08. 14:20 21.0° C bedeckt
Di, 21.08. 14:10 20.4° C bedeckt
Di, 21.08. 14:00 19.9° C bedeckt
Di, 21.08. 13:30 19.1° C bewölkt
Di, 21.08. 13:00 18.8° C bedeckt
Di, 21.08. 12:30 19.1° C bewölkt
Di, 21.08. 12:00 21.7° C wolkig
Ortszeit Relative Feuchte Sichtweite
Di, 21.08. 14:00 60% 30 km
Di, 21.08. 8:00 84% 12 km
Di, 21.08. 2:00 83% 18 km
Mo, 20.08. 20:00 76% 45 km
Mo, 20.08. 14:00 57% 45 km
Mo, 20.08. 8:00 83% 22 km
Mo, 20.08. 2:00 76% 40 km
So, 19.08. 20:00 46% 70 km
Ortszeit Relative Feuchte Sichtweite
Di, 21.08. 15:00 47% 35 km
Di, 21.08. 14:50 47% -
Di, 21.08. 14:40 51% -
Di, 21.08. 14:30 55% 35 km
Di, 21.08. 14:20 55% -
Di, 21.08. 14:10 57% -
Di, 21.08. 14:00 60% 30 km
Di, 21.08. 13:30 62% 28 km
Di, 21.08. 13:00 65% 27 km
Di, 21.08. 12:30 65% 27 km
Di, 21.08. 12:00 58% 21 km
Ortszeit Niederschlagsmenge Niederschlagsart
Di, 21.08. 14:00 0.0 l/m2 in 6 Std. -
Di, 21.08. 8:00 0.0 l/m2 in 12 Std. -
Di, 21.08. 2:00 0.0 l/m2 in 6 Std. -
Mo, 20.08. 20:00 0.0 l/m2 in 12 Std. -
Mo, 20.08. 14:00 0.0 l/m2 in 6 Std. -
Mo, 20.08. 8:00 0.0 l/m2 in 12 Std. -
Mo, 20.08. 2:00 0.0 l/m2 in 6 Std. -
So, 19.08. 20:00 0.0 l/m2 in 12 Std. -
Ortszeit Niederschlagsmenge Niederschlagsart
Di, 21.08. 15:00 0.0 l/m2 in 1 Std. -
Di, 21.08. 14:50 keine Meldung -
Di, 21.08. 14:40 keine Meldung -
Di, 21.08. 14:30 0.0 l/m2 in 1 Std. -
Di, 21.08. 14:20 keine Meldung -
Di, 21.08. 14:10 keine Meldung -
Di, 21.08. 14:00 0.0 l/m2 in 1 Std. -
Di, 21.08. 13:30 0.0 l/m2 in 1 Std. -
Di, 21.08. 13:00 0.0 l/m2 in 1 Std. -
Di, 21.08. 12:30 0.0 l/m2 in 1 Std. -
Di, 21.08. 12:00 0.0 l/m2 in 1 Std. -
Ortszeit Stärke Spitze Richtung
km/h Bft. km/h Grad Sektor
Di, 21.08. 14:00 7 2 18 40° NO
Di, 21.08. 8:00 4 1 22 110° O
Di, 21.08. 2:00 14 3 29 340° N
Mo, 20.08. 20:00 11 2 22 330° NW
Mo, 20.08. 14:00 7 2 25 280° W
Mo, 20.08. 8:00 9 2 26 290° W
Mo, 20.08. 2:00 13 3 26 310° NW
So, 19.08. 20:00 7 2 32 280° W
Ortszeit Stärke Spitze Richtung
km/h Bft. km/h Grad Sektor
Di, 21.08. 15:00 6 1 13 20° N
Di, 21.08. 14:50 6 1 - 20° N
Di, 21.08. 14:40 4 1 - 90° O
Di, 21.08. 14:30 7 2 14 70° O
Di, 21.08. 14:20 7 2 - 70° O
Di, 21.08. 14:10 7 2 - 50° NO
Di, 21.08. 14:00 7 2 18 40° NO
Di, 21.08. 13:30 9 2 17 40° NO
Di, 21.08. 13:00 4 1 11 10° N
Di, 21.08. 12:30 6 1 11 360° N
Di, 21.08. 12:00 7 2 14 40° NO
Ortszeit Untergrenze Bedeckung Gattung
total tief tief mittel hoch
Di, 21.08. 14:00 1200 m 8/8 8/8 - - -
Di, 21.08. 8:00 1470 m 8/8 8/8 - - -
Di, 21.08. 2:00 1290 m 8/8 8/8 - - -
Mo, 20.08. 20:00 1290 m 8/8 8/8 - - -
Mo, 20.08. 14:00 840 m 7/8 7/8 - - -
Mo, 20.08. 8:00 300 m 3/8 3/8 - - -
Mo, 20.08. 2:00 3000 m 1/8 - - - -
So, 19.08. 20:00 2400 m 2/8 1/8 - - -
Ortszeit Bedeckungsgrad in Achtel und Wolkenuntergrenze
Di, 21.08. 15:00 3(1170m) 7(1800m)
Di, 21.08. 14:50 3(1170m) 7(1800m)
Di, 21.08. 14:40 1(1230m) 7(1800m)
Di, 21.08. 14:30 1(1260m) 5(1500m) 8(1800m)
Di, 21.08. 14:20 1(1260m) 5(1500m) 8(1800m)
Di, 21.08. 14:10 7(1500m) 8(1800m)
Di, 21.08. 14:00 1(1200m) 8(1500m)
Di, 21.08. 13:30 5(930m) 7(1200m) 8(1500m)
Di, 21.08. 13:00 4(780m) 7(1200m) 8(1410m)
Di, 21.08. 12:30 7(720m) 8(900m)
Di, 21.08. 12:00 1(570m) 4(1380m) 6(1410m)
Ortszeit Stationsdruck (hPa) Tendenz (hPa in 3 Std.)
Di, 21.08. 14:00 927 - 0,4
Di, 21.08. 8:00 927 + 0,5
Di, 21.08. 2:00 927 + 0,4
Mo, 20.08. 20:00 926 - 0,2
Mo, 20.08. 14:00 926 + 0,1
Mo, 20.08. 8:00 925 + 0,3
Mo, 20.08. 2:00 926 0,0
So, 19.08. 20:00 926 - 0,6
Ortszeit Stationsdruck (hPa) Tendenz (hPa in 3 Std.)
Di, 21.08. 15:00 927 - 0,5
Di, 21.08. 14:50 927 keine Meldung
Di, 21.08. 14:40 927 keine Meldung
Di, 21.08. 14:30 927 - 0,5
Di, 21.08. 14:20 927 keine Meldung
Di, 21.08. 14:10 927 keine Meldung
Di, 21.08. 14:00 927 - 0,4
Di, 21.08. 13:30 927 - 0,4
Di, 21.08. 13:00 927 - 0,2
Di, 21.08. 12:30 927 + 0,1
Di, 21.08. 12:00 927 + 0,1
Ortszeit Schneehöhe (cm)
Di, 21.08. 14:00 -
Di, 21.08. 8:00 -
Di, 21.08. 2:00 -
Mo, 20.08. 20:00 -
Mo, 20.08. 14:00 -
Mo, 20.08. 8:00 -
Mo, 20.08. 2:00 -
So, 19.08. 20:00 -
Ortszeit Schneehöhe (cm)
Di, 21.08. 15:00 -
Di, 21.08. 14:50 -
Di, 21.08. 14:40 -
Di, 21.08. 14:30 -
Di, 21.08. 14:20 -
Di, 21.08. 14:10 -
Di, 21.08. 14:00 -
Di, 21.08. 13:30 -
Di, 21.08. 13:00 -
Di, 21.08. 12:30 -
Di, 21.08. 12:00 -
Link zu dieser Seite / Seite empfehlen

Das Wetter in ...